Weather History for Sacramento International, CA

Change the Weather History Date:

Friday, January 18, 2013

  Actual Average Record
Temperature  
Mean Temperature 44 °F -  
Max Temperature 59 °F 53 °F 68 °F (2014)
Min Temperature 28 °F 39 °F 26 °F (1947)
Degree Days  
Heating Degree Days 22    
Moisture  
Dew Point 34 °F    
Average Humidity 78    
Maximum Humidity 100    
Minimum Humidity 41    
Precipitation  
Precipitation 0.00 in - - ()
Sea Level Pressure  
Sea Level Pressure 30.21 in    
Wind  
Wind Speed 4 mph (NNW)    
Max Wind Speed 8 mph    
Max Gust Speed -    
Visibility 8 miles    
Events Fog    
Averages and records for this station are not official NWS values.
T = Trace of Precipitation, MM = Missing Value Source: NWS Daily Summary

Daily Weather History Graph

Daily Weather History Graph

Search for Another Location

Airport:

Trip Planner

Search our weather history database for the weather conditions in past years. The results will help you decide how hot, cold, wet, or windy it might be!

Date:

Astronomy

Jan. 18, 2013 Rise Set
Actual Time 7:21 AM PST 5:12 PM PST
Civil Twilight 6:52 AM PST 5:41 PM PST
Nautical Twilight 6:20 AM PST 6:14 PM PST
Astronomical Twilight 5:48 AM PST 6:45 PM PST
Moon 11:08 AM PST (1/18) 12:03 AM PST (1/18)
Length of Visible Light 10h 48m
Length of Day
9h 51m
Waxing Crescent, 48% of the Moon is Illuminated
Jan 18
Waxing Crescent
Jan 18
First Quarter
Jan 26
Full
Feb 3
Last Quarter
Feb 9
New

Hourly Weather History & Observations

Time (PST) Temp. Windchill Dew Point Humidity Pressure Visibility Wind Dir Wind Speed Gust Speed Precip Events Conditions
12:53 AM 35.1 °F 30.1 °F 33.1 °F 92% 30.22 in 7.0 mi NW 5.8 mph - N/A   Clear
1:53 AM 34.0 °F 28.8 °F 32.0 °F 92% 30.23 in 7.0 mi NNW 5.8 mph - N/A   Clear
2:53 AM 33.1 °F 30.0 °F 32.0 °F 96% 30.22 in 6.0 mi NNW 3.5 mph - N/A   Clear
3:53 AM 33.1 °F 28.7 °F 32.0 °F 96% 30.22 in 5.0 mi NNW 4.6 mph - N/A   Clear
4:53 AM 32.0 °F 25.6 °F 30.9 °F 96% 30.22 in 4.0 mi NW 6.9 mph - N/A   Clear
5:53 AM 33.1 °F 30.0 °F 33.1 °F 100% 30.21 in 3.0 mi NNW 3.5 mph - N/A   Clear
6:12 AM 32.0 °F - 32.0 °F 100% 30.21 in 0.8 mi Calm Calm - N/A   Partly Cloudy
6:53 AM 32.0 °F - 30.9 °F 96% 30.23 in 0.8 mi Calm Calm - N/A   Partly Cloudy
7:53 AM 28.9 °F - 28.0 °F 96% 30.24 in 0.8 mi Calm Calm - N/A Fog Shallow Fog
7:57 AM 30.2 °F - 28.4 °F 93% 30.24 in 0.8 mi Calm Calm - N/A Fog Shallow Fog
8:51 AM 33.8 °F - 33.8 °F 100% 30.26 in 10.0 mi Calm Calm - N/A   Clear
8:53 AM 35.1 °F - 35.1 °F 100% 30.26 in 10.0 mi Calm Calm - N/A   Clear
9:53 AM 45.0 °F 42.6 °F 37.0 °F 74% 30.27 in 10.0 mi NNE 4.6 mph - N/A   Clear
10:53 AM 48.0 °F - 37.0 °F 66% 30.27 in 10.0 mi NNW 4.6 mph - N/A   Clear
11:53 AM 52.0 °F - 37.0 °F 57% 30.23 in 10.0 mi NNW 5.8 mph - N/A   Clear
12:53 PM 57.0 °F - 35.1 °F 44% 30.20 in 10.0 mi NNW 8.1 mph - N/A   Clear
1:53 PM 57.9 °F - 35.1 °F 42% 30.19 in 10.0 mi NNW 8.1 mph - N/A   Clear
2:53 PM 59.0 °F - 35.1 °F 41% 30.17 in 10.0 mi NNW 8.1 mph - N/A   Clear
3:53 PM 59.0 °F - 37.0 °F 44% 30.17 in 10.0 mi North 8.1 mph - N/A   Clear
4:53 PM 55.0 °F - 37.9 °F 53% 30.17 in 10.0 mi NW 3.5 mph - N/A   Clear
5:53 PM 48.9 °F - 36.0 °F 61% 30.17 in 10.0 mi Calm Calm - N/A   Clear
6:53 PM 48.9 °F - 35.1 °F 59% 30.17 in 10.0 mi Calm Calm - N/A   Clear
7:53 PM 42.1 °F - 34.0 °F 73% 30.17 in 10.0 mi Calm Calm - N/A   Clear
8:53 PM 39.9 °F - 33.1 °F 77% 30.18 in 10.0 mi Calm Calm - N/A   Clear
9:53 PM 41.0 °F - 34.0 °F 76% 30.18 in 10.0 mi Calm Calm - N/A   Clear
10:53 PM 39.9 °F - 35.1 °F 83% 30.19 in 10.0 mi Calm Calm - N/A   Clear
11:53 PM 36.0 °F 33.3 °F 34.0 °F 93% 30.19 in 10.0 mi SE 3.5 mph - N/A   Clear